Curtin, Australia

10:43 PM AWST on December 12, 2017 (GMT +0800)
Curtin

Weather History for YCIN - October, 2012

Change the Weather History Date:

Friday, October 12, 2012

  Actual Average Record
Temperature  
Mean Temperature 92 °F -  
Max Temperature 104 °F - - ()
Min Temperature 80 °F - - ()
Cooling Degree Days 27    
Growing Degree Days 42 (Base 50)    
Moisture  
Dew Point 56 °F    
Average Humidity 33    
Maximum Humidity 74    
Minimum Humidity 10    
Precipitation  
Precipitation 0.00 in - - ()
Sea Level Pressure  
Sea Level Pressure 29.89 in    
Wind  
Wind Speed 9 mph ()    
Max Wind Speed 13 mph    
Max Gust Speed -    
T = Trace of Precipitation, MM = Missing Value Source: Averaged Metar Reports

Daily Weather History Graph

Daily Weather History Graph

Search for Another Location

Airport or City:

Trip Planner

Search our weather history database for the weather conditions in past years. The results will help you decide how hot, cold, wet, or windy it might be!

Date:

Astronomy

Oct. 12, 2012 Rise Set
Actual Time 5:18 AM AWST 5:44 PM AWST
Civil Twilight 4:56 AM AWST 6:06 PM AWST
Nautical Twilight 4:30 AM AWST 6:31 PM AWST
Astronomical Twilight 4:04 AM AWST 6:57 PM AWST
Moon 2:30 AM AWST 2:38 PM AWST
Length of Visible Light 13h 10m
Length of Day
12h 26m
Waning Crescent, 14% of the Moon is Illuminated
Oct 12
Waning Crescent
Oct 15
New
Oct 22
First Quarter
Oct 30
Full
Nov 7
Last Quarter

Hourly Weather History & Observations

Time (AWST) Temp. Heat Index Dew Point Humidity Pressure Visibility Wind Dir Wind Speed Gust Speed Precip Events Conditions
12:00 AM 86 °F - 39 °F 10% 29.84 in - SE 11.5 mph - -  
12:00 AM 86.0 °F - 39.2 °F 19% 29.86 in - SE 11.5 mph - N/A   Unknown
1:00 AM 84.2 °F - 37.4 °F 19% 29.83 in - SE 10.4 mph - N/A   Unknown
2:00 AM 84.2 °F - 35.6 °F 18% 29.83 in - ESE 12.7 mph - N/A   Unknown
3:00 AM 83 °F - 36 °F 10% 29.83 in - SE 11.5 mph - -  
3:00 AM 82.4 °F - 37.4 °F 20% 29.83 in - SE 11.5 mph - N/A   Unknown
4:00 AM 82.4 °F - 35.6 °F 19% 29.86 in - ESE 10.4 mph - N/A   Unknown
6:00 AM 81 °F - 38 °F 13% 29.90 in - ESE 9.2 mph - -  
6:00 AM 80.6 °F - 39.2 °F 23% 29.89 in - ESE 9.2 mph - N/A   Unknown
7:00 AM 84.2 °F 83.5 °F 57.2 °F 40% 29.92 in - East 8.1 mph - N/A   Unknown
8:00 AM 89.6 °F 93.4 °F 68.0 °F 49% 29.95 in - ENE 11.5 mph - N/A   Unknown
9:00 AM 95.0 °F 96.0 °F 62.6 °F 34% 29.95 in - ENE 11.5 mph - N/A   Unknown
10:00 AM 98.6 °F 100.0 °F 62.6 °F 30% 29.95 in - NE 10.4 mph - N/A   Unknown
11:00 AM 100.4 °F 101.3 °F 60.8 °F 27% 29.92 in - ENE 9.2 mph - N/A   Unknown
12:00 PM 98.6 °F 98.5 °F 59.0 °F 27% 29.89 in - NNW 9.2 mph - N/A   Unknown
1:00 PM 102.2 °F 102.4 °F 59.0 °F 24% 29.86 in - NNW 8.1 mph - N/A   Unknown
2:00 PM 100.4 °F 99.7 °F 57.2 °F 24% 29.83 in - WNW 8.1 mph - N/A   Unknown
3:00 PM 100.4 °F 102.4 °F 62.6 °F 29% 29.83 in - WNW 11.5 mph - N/A   Unknown
4:00 PM 98.6 °F 101.0 °F 64.4 °F 32% 29.83 in - WNW 10.4 mph - N/A   Unknown
5:00 PM 93.2 °F 94.9 °F 64.4 °F 38% 29.86 in - NW 9.2 mph - N/A   Unknown
6:00 PM 90 °F - 63 °F 30% 29.91 in - ENE 4.6 mph - -  
6:00 PM 89.6 °F 90.1 °F 62.6 °F 40% 29.92 in - ENE 4.6 mph - N/A   Unknown
7:00 PM 87.8 °F 89.4 °F 64.4 °F 46% 29.92 in - North 8.1 mph - N/A   Unknown
8:00 PM 84.2 °F 87.3 °F 68.0 °F 58% 29.95 in - North 8.1 mph - N/A   Unknown
9:00 PM 84 °F - 69 °F 52% 29.96 in - NW 4.6 mph - -  
9:00 PM 84.2 °F 88.4 °F 69.8 °F 62% 29.98 in - NW 4.6 mph - N/A   Unknown
10:00 PM 82.4 °F 87.2 °F 71.6 °F 70% 29.98 in - WSW 6.9 mph - N/A   Unknown
11:00 PM 82.4 °F 88.2 °F 73.4 °F 74% 29.95 in - West 6.9 mph - N/A   Unknown